San Jose, Costa Rica

1:07 PM CST on November 24, 2017 (GMT -0600)
Juan Santamaria International

Weather History for MROC - December, 2012

Change the Weather History Date:

Thursday, December 27, 2012

  Actual Average Record
Temperature  
Mean Temperature 76 °F -  
Max Temperature 84 °F 80 °F 87 °F (1997)
Min Temperature 67 °F 63 °F 60 °F (1997)
Cooling Degree Days 10    
Growing Degree Days 26 (Base 50)    
Moisture  
Dew Point 61 °F    
Average Humidity 63    
Maximum Humidity 83    
Minimum Humidity 38    
Precipitation  
Precipitation 0.00 in 0.01 in - ()
Sea Level Pressure  
Sea Level Pressure 29.90 in    
Wind  
Wind Speed 6 mph ()    
Max Wind Speed 14 mph    
Max Gust Speed 23 mph    
Visibility 7.5 miles    
Events      
Averages and records for this station are not official NWS values.
T = Trace of Precipitation, MM = Missing Value Source: Averaged Metar Reports

Daily Weather History Graph

Daily Weather History Graph

Search for Another Location

Airport or City:

Trip Planner

Search our weather history database for the weather conditions in past years. The results will help you decide how hot, cold, wet, or windy it might be!

Date:

Astronomy

Dec. 27, 2012 Rise Set
Actual Time 5:51 AM CST 5:24 PM CST
Civil Twilight 5:29 AM CST 5:47 PM CST
Nautical Twilight 5:02 AM CST 6:13 PM CST
Astronomical Twilight 4:36 AM CST 6:40 PM CST
Moon 5:00 PM CST (12/27) 5:07 AM CST (12/27)
Length of Visible Light 12h 18m
Length of Day
11h 32m
Full, 100% of the Moon is Illuminated
Dec 27
Full
Dec 28
Full
Jan 4
Last Quarter
Jan 11
New
Jan 18
First Quarter

Hourly Weather History & Observations

Time (CST) Temp. Heat Index Dew Point Humidity Pressure Visibility Wind Dir Wind Speed Gust Speed Precip Events Conditions
12:00 AM 69 °F - 62 °F 74% 29.78 in 12 mi ENE 2.3 mph - -   Scattered Clouds
12:00 AM 68.0 °F - 62.6 °F 83% 29.96 in 6.2 mi ENE 2.3 mph - N/A   Partly Cloudy
1:00 AM 68.0 °F - 62.6 °F 83% 29.95 in 6.2 mi NE 3.5 mph - N/A   Scattered Clouds
2:00 AM 69.8 °F - 62.6 °F 78% 29.92 in 6.2 mi ESE 5.8 mph - N/A   Scattered Clouds
3:00 AM 70 °F - 63 °F 71% 29.76 in 12 mi ESE 5.8 mph - -   Scattered Clouds
3:00 AM 69.8 °F - 62.6 °F 78% 29.91 in 6.2 mi ESE 5.8 mph - N/A   Scattered Clouds
4:00 AM 69.8 °F - 62.6 °F 78% 29.92 in 6.2 mi ESE 5.8 mph - N/A   Scattered Clouds
5:00 AM 69.8 °F - 62.6 °F 78% 29.93 in 6.2 mi ESE 4.6 mph - N/A   Scattered Clouds
6:00 AM 71 °F - 62 °F 67% 29.80 in 12 mi East 5.8 mph - -   Scattered Clouds
6:00 AM 71.6 °F - 62.6 °F 73% 29.95 in 6.2 mi East 5.8 mph - N/A   Mostly Cloudy
7:00 AM 73.4 °F - 62.6 °F 69% 29.97 in 6.2 mi ENE 6.9 mph - N/A   Mostly Cloudy
8:00 AM 77.0 °F - 62.6 °F 61% 29.98 in 6.2 mi ESE 8.1 mph - N/A   Scattered Clouds
9:00 AM 75.2 °F - 62.6 °F 65% 29.99 in 6.2 mi East 9.2 mph - N/A   Mostly Cloudy
10:00 AM 77.0 °F - 62.6 °F 61% 29.99 in 6.2 mi ESE 9.2 mph - N/A   Scattered Clouds
11:00 AM 82.4 °F 82.5 °F 59.0 °F 45% 29.97 in 6.2 mi ENE 13.8 mph - N/A   Partly Cloudy
12:00 PM 81 °F - 60 °F 38% 29.78 in 12 mi ENE 12.7 mph - -   Scattered Clouds
12:00 PM 80.6 °F 81.5 °F 60.8 °F 51% 29.95 in 6.2 mi ENE 12.7 mph - N/A   Mostly Cloudy
1:00 PM 80.6 °F 81.1 °F 59.0 °F 48% 29.93 in 6.2 mi ENE 10.4 mph - N/A   Scattered Clouds
2:00 PM 82.4 °F 82.5 °F 59.0 °F 45% 29.89 in 6.2 mi East 11.5 mph - N/A   Scattered Clouds
3:00 PM 80 °F - 61 °F 42% 29.72 in 12 mi East 10.4 mph - -   Scattered Clouds
3:00 PM 80.6 °F 81.5 °F 60.8 °F 51% 29.88 in 6.2 mi East 10.4 mph - N/A   Mostly Cloudy
4:00 PM 77.0 °F - 60.8 °F 57% 29.89 in 6.2 mi East 6.9 mph - N/A   Mostly Cloudy
5:00 PM 77.0 °F - 60.8 °F 57% 29.90 in 6.2 mi East 5.8 mph - N/A   Mostly Cloudy
6:00 PM 75 °F - 60 °F 51% 29.75 in 12 mi East 5.8 mph - -   Overcast
6:00 PM 75.2 °F - 60.8 °F 61% 29.91 in 6.2 mi East 5.8 mph - N/A   Scattered Clouds
7:00 PM 73.4 °F - 60.8 °F 65% 29.92 in 6.2 mi ESE 8.1 mph - N/A   Mostly Cloudy
8:00 PM 73.4 °F - 60.8 °F 65% 29.94 in 6.2 mi East 11.5 mph 23.0 mph N/A   Partly Cloudy
9:00 PM 72 °F - 61 °F 60% 29.79 in 12 mi East 11.5 mph - -   Partly Cloudy
9:00 PM 73.4 °F - 60.8 °F 65% 29.96 in 6.2 mi East 11.5 mph 23.0 mph N/A   Scattered Clouds
10:00 PM 73.4 °F - 60.8 °F 65% 29.97 in 6.2 mi ESE 8.1 mph - N/A   Scattered Clouds
11:00 PM 71.6 °F - 62.6 °F 73% 29.94 in 6.2 mi ENE 9.2 mph - N/A   Scattered Clouds